TimeEST,TemperatureF,Dew PointF,Humidity,Sea Level PressureIn,VisibilityMPH,Wind Direction,Wind SpeedMPH,Gust SpeedMPH,PrecipitationIn,Events,Conditions,WindDirDegrees,DateUTC
12:15 AM,51.6,46.9,84,29.75,10.0,South,11.5,17.3,N/A,,Clear,190,2013-01-12 05:15:00
12:35 AM,52.0,47.1,83,29.74,10.0,South,10.4,18.4,N/A,,Clear,190,2013-01-12 05:35:00
12:54 AM,52.3,47.3,83,29.75,10.0,South,11.5,19.6,N/A,,Clear,190,2013-01-12 05:54:00
1:15 AM,52.5,47.3,82,29.76,10.0,SSW,11.5,17.3,N/A,,Clear,200,2013-01-12 06:15:00
1:35 AM,52.7,47.1,81,29.77,10.0,SSW,10.4,17.3,N/A,,Clear,200,2013-01-12 06:35:00
1:55 AM,52.7,46.9,81,29.77,10.0,South,12.7,18.4,N/A,,Clear,190,2013-01-12 06:55:00
2:15 AM,52.5,46.6,80,29.77,10.0,South,11.5,19.6,N/A,,Clear,190,2013-01-12 07:15:00
2:34 AM,52.7,46.4,79,29.78,10.0,SSW,12.7,20.7,N/A,,Clear,200,2013-01-12 07:34:00
2:54 AM,52.3,46.4,80,29.78,10.0,SSW,12.7,19.6,N/A,,Clear,200,2013-01-12 07:54:00
3:15 AM,52.3,45.9,79,29.77,10.0,SSW,11.5,17.3,N/A,,Clear,200,2013-01-12 08:15:00
3:35 AM,52.3,45.9,79,29.78,10.0,South,12.7,18.4,N/A,,Clear,190,2013-01-12 08:35:00
3:55 AM,52.5,45.7,78,29.78,10.0,South,11.5,17.3,N/A,,Clear,190,2013-01-12 08:55:00
4:15 AM,52.3,45.5,78,29.77,10.0,SSW,11.5,19.6,N/A,,Clear,210,2013-01-12 09:15:00
4:35 AM,52.5,45.5,77,29.77,10.0,SSW,11.5,18.4,N/A,,Clear,200,2013-01-12 09:35:00
4:54 AM,52.2,45.5,78,29.77,10.0,SSW,12.7,17.3,N/A,,Clear,200,2013-01-12 09:54:00
5:15 AM,52.3,45.5,78,29.77,10.0,SSW,10.4,19.6,N/A,,Clear,200,2013-01-12 10:15:00
5:34 AM,52.3,45.5,78,29.76,10.0,SSW,10.4,18.4,N/A,,Clear,200,2013-01-12 10:34:00
5:55 AM,52.2,45.5,78,29.77,10.0,SSW,11.5,19.6,N/A,,Clear,200,2013-01-12 10:55:00
6:15 AM,52.0,45.5,79,29.77,10.0,SSW,10.4,-,N/A,,Clear,200,2013-01-12 11:15:00
6:35 AM,52.0,45.5,79,29.78,10.0,SSW,9.2,17.3,N/A,,Clear,200,2013-01-12 11:35:00
6:54 AM,52.2,45.5,78,29.79,10.0,SSW,9.2,-,N/A,,Clear,200,2013-01-12 11:54:00
7:15 AM,52.0,45.5,79,29.80,10.0,SSW,9.2,-,N/A,,Clear,200,2013-01-12 12:15:00
7:35 AM,52.2,45.5,78,29.81,10.0,SSW,10.4,17.3,N/A,,Clear,200,2013-01-12 12:35:00
7:55 AM,51.8,45.5,79,29.82,10.0,SSW,12.7,19.6,N/A,,Clear,200,2013-01-12 12:55:00
8:15 AM,52.0,45.5,79,29.82,10.0,SSW,11.5,17.3,N/A,,Clear,200,2013-01-12 13:15:00
8:35 AM,52.0,45.7,79,29.83,10.0,SSW,12.7,18.4,N/A,,Clear,210,2013-01-12 13:35:00
8:55 AM,52.2,45.9,79,29.83,10.0,SSW,10.4,17.3,N/A,,Clear,210,2013-01-12 13:55:00
9:13 AM,52.2,46.0,80,29.84,10.0,SSW,11.5,17.3,N/A,,Clear,200,2013-01-12 14:13:00
9:33 AM,52.2,45.9,79,29.85,10.0,SSW,11.5,-,N/A,,Clear,210,2013-01-12 14:33:00
9:55 AM,52.9,46.4,79,29.86,10.0,SSW,12.7,19.6,N/A,,Clear,210,2013-01-12 14:55:00
10:14 AM,54.3,46.4,75,29.86,10.0,SW,12.7,17.3,N/A,,Clear,220,2013-01-12 15:14:00
10:35 AM,55.6,46.6,72,29.87,10.0,SW,13.8,21.9,N/A,,Clear,220,2013-01-12 15:35:00
10:55 AM,55.4,46.4,72,29.88,10.0,SW,17.3,27.6,N/A,,Clear,220,2013-01-12 15:55:00
11:15 AM,55.4,46.8,73,29.88,10.0,SW,18.4,27.6,N/A,,Clear,220,2013-01-12 16:15:00
11:35 AM,55.8,46.6,71,29.88,10.0,SW,13.8,25.3,N/A,,Clear,230,2013-01-12 16:35:00
11:54 AM,55.2,46.0,71,29.88,10.0,WSW,16.1,26.5,N/A,,Clear,240,2013-01-12 16:54:00
12:15 PM,54.5,46.2,74,29.88,10.0,WSW,15.0,24.2,N/A,,Clear,240,2013-01-12 17:15:00
12:34 PM,53.8,45.9,75,29.89,10.0,SW,16.1,25.3,N/A,,Clear,230,2013-01-12 17:34:00
12:55 PM,52.7,46.0,78,29.89,10.0,WSW,12.7,19.6,N/A,,Clear,250,2013-01-12 17:55:00
1:15 PM,51.1,44.8,79,29.90,10.0,WSW,15.0,23.0,N/A,,Clear,250,2013-01-12 18:15:00
1:35 PM,50.0,43.0,77,29.90,10.0,WSW,10.4,17.3,N/A,,Clear,250,2013-01-12 18:35:00
1:55 PM,49.5,40.5,71,29.90,10.0,WSW,13.8,17.3,N/A,,Clear,240,2013-01-12 18:55:00
2:15 PM,49.1,37.8,65,29.90,10.0,WSW,11.5,16.1,N/A,,Clear,240,2013-01-12 19:15:00
2:34 PM,48.2,37.6,67,29.91,10.0,WSW,9.2,-,N/A,,Clear,250,2013-01-12 19:34:00
2:55 PM,47.1,36.9,68,29.93,10.0,WSW,9.2,-,N/A,,Clear,250,2013-01-12 19:55:00
3:15 PM,46.4,34.9,64,29.93,10.0,WSW,6.9,-,N/A,,Clear,250,2013-01-12 20:15:00
3:35 PM,45.5,33.1,62,29.94,10.0,West,8.1,-,N/A,,Clear,270,2013-01-12 20:35:00
3:55 PM,44.8,33.1,64,29.94,10.0,WSW,5.8,-,N/A,,Clear,240,2013-01-12 20:55:00
4:15 PM,44.1,32.5,64,29.94,10.0,West,4.6,-,N/A,,Clear,260,2013-01-12 21:15:00
4:35 PM,43.7,33.1,66,29.95,10.0,WSW,3.5,-,N/A,,Scattered Clouds,250,2013-01-12 21:35:00
4:55 PM,43.3,33.3,68,29.96,10.0,Calm,Calm,-,N/A,,Scattered Clouds,0,2013-01-12 21:55:00
5:15 PM,43.2,32.9,67,29.96,10.0,Calm,Calm,-,N/A,,Scattered Clouds,0,2013-01-12 22:15:00
5:35 PM,43.2,33.6,69,29.94,10.0,Calm,Calm,-,N/A,,Scattered Clouds,0,2013-01-12 22:35:00
5:54 PM,42.8,34.0,71,29.94,10.0,WNW,3.5,-,N/A,,Scattered Clouds,290,2013-01-12 22:54:00
6:15 PM,42.4,34.2,72,29.94,10.0,WNW,3.5,-,N/A,,Mostly Cloudy,290,2013-01-12 23:15:00
6:34 PM,42.1,35.2,77,29.97,10.0,West,4.6,-,N/A,,Scattered Clouds,280,2013-01-12 23:34:00
7:14 PM,41.7,35.6,79,29.96,10.0,West,4.6,-,N/A,,Mostly Cloudy,280,2013-01-13 00:14:00
7:35 PM,41.4,35.1,78,29.94,10.0,Calm,Calm,-,N/A,,Overcast,0,2013-01-13 00:35:00
8:14 PM,41.2,34.0,76,29.92,10.0,Calm,Calm,-,N/A,,Overcast,0,2013-01-13 01:14:00
8:55 PM,41.2,34.0,76,29.90,10.0,Calm,Calm,-,N/A,,Overcast,0,2013-01-13 01:55:00
9:15 PM,41.5,34.7,77,29.92,10.0,Calm,Calm,-,N/A,,Overcast,0,2013-01-13 02:15:00
9:35 PM,41.0,35.8,82,29.92,10.0,NW,3.5,-,N/A,Rain,Light Rain,320,2013-01-13 02:35:00
9:54 PM,40.1,36.5,87,29.89,10.0,Calm,Calm,-,N/A,Rain,Light Rain,0,2013-01-13 02:54:00
10:15 PM,40.1,37.0,89,29.88,10.0,North,3.5,-,N/A,Rain,Light Rain,360,2013-01-13 03:15:00
10:34 PM,39.7,36.5,88,29.89,10.0,North,4.6,-,N/A,Rain,Light Rain,350,2013-01-13 03:34:00
10:55 PM,39.2,36.3,89,29.90,7.0,NNW,6.9,-,N/A,Rain,Light Rain,330,2013-01-13 03:55:00
11:15 PM,38.7,35.8,89,29.90,7.0,NNW,8.1,-,N/A,Rain,Light Rain,340,2013-01-13 04:15:00
11:34 PM,38.1,35.6,91,29.90,5.0,North,9.2,-,N/A,Rain,Light Rain,350,2013-01-13 04:34:00
11:55 PM,37.4,34.2,88,29.89,7.0,North,8.1,-,N/A,Rain,Light Rain,360,2013-01-13 04:55:00